Hayward, WI

5:59 AM CDT on September 24, 2017 (GMT -0500)
Sawyer County

Weather History for KHYR - April, 2012

Change the Weather History Date:

Sunday, April 8, 2012

  Actual Average Record
Temperature  
Mean Temperature 44 °F -  
Max Temperature 57 °F 47 °F 73 °F (2017)
Min Temperature 33 °F 28 °F 6 °F (1997)
Degree Days  
Heating Degree Days 21    
Moisture  
Dew Point 23 °F    
Average Humidity 47    
Maximum Humidity 82    
Minimum Humidity 23    
Precipitation  
Precipitation 0.00 in - - ()
Sea Level Pressure  
Sea Level Pressure 30.10 in    
Wind  
Wind Speed 5 mph (West)    
Max Wind Speed 16 mph    
Max Gust Speed 26 mph    
Visibility 10 miles    
Events      
Averages and records for this station are not official NWS values.
T = Trace of Precipitation, MM = Missing Value Source: NWS Daily Summary

Daily Weather History Graph

Daily Weather History Graph

Search for Another Location

Airport or City:

Trip Planner

Search our weather history database for the weather conditions in past years. The results will help you decide how hot, cold, wet, or windy it might be!

Date:

Astronomy

Apr. 08, 2012 Rise Set
Actual Time 6:31 AM CDT 7:44 PM CDT
Civil Twilight 6:00 AM CDT 8:15 PM CDT
Nautical Twilight 5:23 AM CDT 8:52 PM CDT
Astronomical Twilight 4:44 AM CDT 9:31 PM CDT
Moon 10:43 PM CDT (4/8) 7:18 AM CDT (4/8)
Length of Visible Light 14h 14m
Length of Day
13h 12m
Waning Gibbous, 95% of the Moon is Illuminated
Apr 8
Waning Gibbous
Apr 13
Last Quarter
Apr 21
New
Apr 29
First Quarter
May 5
Full

Hourly Weather History & Observations

Time (CDT) Temp. Windchill Dew Point Humidity Pressure Visibility Wind Dir Wind Speed Gust Speed Precip Events Conditions
12:53 AM 39.0 °F 35.7 °F 30.9 °F 73% 30.11 in 10.0 mi Variable 4.6 mph - N/A   Clear
1:53 AM 37.9 °F - 28.0 °F 68% 30.12 in 10.0 mi Calm Calm - N/A   Clear
2:53 AM 33.1 °F - 28.0 °F 82% 30.13 in 10.0 mi Calm Calm - N/A   Clear
3:53 AM 35.1 °F - 26.1 °F 70% 30.14 in 10.0 mi Calm Calm - N/A   Clear
4:53 AM 36.0 °F 32.1 °F 25.0 °F 64% 30.15 in 10.0 mi Variable 4.6 mph - N/A   Clear
5:53 AM 35.1 °F 31.0 °F 24.1 °F 64% 30.16 in 10.0 mi Variable 4.6 mph - N/A   Clear
6:53 AM 36.0 °F 33.3 °F 23.0 °F 59% 30.17 in 10.0 mi Variable 3.5 mph - N/A   Clear
7:53 AM 39.0 °F 34.0 °F 24.1 °F 55% 30.17 in 10.0 mi West 6.9 mph - N/A   Clear
8:53 AM 43.0 °F 38.2 °F 24.1 °F 47% 30.17 in 10.0 mi West 8.1 mph 16.1 mph N/A   Clear
9:53 AM 46.9 °F - 21.0 °F 36% 30.17 in 10.0 mi West 6.9 mph - N/A   Partly Cloudy
10:53 AM 46.9 °F - 21.9 °F 37% 30.17 in 10.0 mi WSW 5.8 mph 19.6 mph N/A   Overcast
11:53 AM 51.1 °F - 23.0 °F 33% 30.14 in 10.0 mi West 9.2 mph - N/A   Partly Cloudy
12:53 PM 53.1 °F - 21.9 °F 30% 30.12 in 10.0 mi WNW 16.1 mph 23.0 mph N/A   Mostly Cloudy
1:53 PM 54.0 °F - 19.9 °F 26% 30.10 in 10.0 mi West 9.2 mph 23.0 mph N/A   Scattered Clouds
3:53 PM 53.1 °F - 19.9 °F 27% 30.06 in 10.0 mi Variable 6.9 mph 26.5 mph N/A   Mostly Cloudy
4:53 PM 55.9 °F - 18.0 °F 23% 30.03 in 10.0 mi West 8.1 mph 24.2 mph N/A   Partly Cloudy
5:53 PM 55.0 °F - 19.9 °F 25% 30.03 in 10.0 mi Variable 5.8 mph - N/A   Mostly Cloudy
6:53 PM 54.0 °F - 19.9 °F 26% 30.02 in 10.0 mi West 10.4 mph 17.3 mph N/A   Mostly Cloudy
7:53 PM 48.0 °F - 23.0 °F 37% 30.03 in 10.0 mi Variable 3.5 mph - N/A   Scattered Clouds
8:53 PM 41.0 °F - 24.1 °F 51% 30.03 in 10.0 mi Calm Calm - N/A   Mostly Cloudy
9:53 PM 37.9 °F - 26.1 °F 62% 30.02 in 10.0 mi Calm Calm - N/A   Overcast
11:53 PM 46.0 °F 44.8 °F 19.9 °F 35% 30.02 in 10.0 mi West 3.5 mph - N/A   Partly Cloudy